#timestamp,LO_Frequency,Hit,StdDev 
1656817215.8,286046999.0,N
1656817235.7,286046999.3,N
1656817255.5,286046998.9,N
1656817275.4,286046998.3,N
1656817295.2,286046998.4,N
1656817315.0,286046998.8,N
1656817316.0,286046998.8,N
1656817335.8,286046998.9,N
1656817355.6,286046998.8,N
1656817375.5,286047000.8,N
1656817395.3,286047001.0,N
1656817415.1,286047001.2,N
1656817435.9,286047000.8,N
1656817455.7,286047001.2,N
1656817475.6,286046998.1,N
1656817495.4,286047000.0,N
1656817515.2,286047002.8,N
1656817535.1,286047000.0,N
1656817536.0,286047000.0,N
1656817555.8,286047000.5,N
1656817575.7,286047000.2,N
1656817595.5,286047002.7,N
1656817615.3,286047000.0,N
1656817635.2,286047000.2,N
1656817655.0,286046999.9,N
1656817655.9,286046999.9,N
1656817675.8,286047002.7,N
1656817695.6,286046999.8,N
1656817715.4,286047000.3,N
1656817735.3,286047000.9,N
1656817755.1,286046999.1,N
1656817775.9,286046998.2,N
1656817795.7,286046998.2,N
1656817815.6,286046998.1,N
1656817835.4,286047000.8,N
1656817855.2,286047001.2,N
1656817875.1,286047001.2,N
1656817876.0,286047001.2,N
1656817895.8,286047001.2,N
1656817915.7,286046998.5,N
1656817935.5,286047000.7,N
1656817955.3,286046998.7,N
1656817975.2,286046999.2,N
1656817995.0,286046998.4,N
1656817995.9,286046998.4,N
1656818015.8,286047000.2,N
1656818035.6,286047001.2,N
1656818055.4,286046998.7,N
1656818075.3,286047000.7,N
1656818095.1,286047000.5,N
1656818115.9,286047000.1,N
1656818135.7,286047000.5,N
1656818155.5,286047000.4,N
1656818175.4,286046999.7,N
1656818195.2,286047002.0,N
1656818215.0,286047002.2,N
1656818215.9,286047002.2,N
1656818235.8,286047001.9,N
1656818255.6,286047002.0,N
1656818275.5,286047000.2,N
1656818295.3,286047000.0,N
1656818315.1,286047002.4,N
1656818335.9,286047002.0,N
1656818355.7,286047001.6,N
1656818375.6,286047004.3,Y
1656818395.4,286047000.2,P
1656818415.2,286047002.6,P
1656818435.1,286047002.2,N
1656818436.0,286047002.2,N
1656818455.8,286047002.5,N
1656818475.6,286047001.9,N
1656818495.5,286047002.3,N
1656818515.3,286047002.7,Y
1656818535.2,286046998.3,P
1656818555.9,286046998.3,N
1656818575.7,286046996.9,N
1656818595.6,286046996.6,N
1656818615.4,286046997.1,N
1656818635.2,286046996.5,N
1656818655.1,286046997.3,N
1656818656.0,286046997.3,N
1656818675.8,286046995.4,N
1656818695.7,286046997.6,N
1656818715.5,286046997.3,N
1656818735.3,286046996.7,N
1656818755.2,286046999.2,N
1656818775.0,286046999.4,N
1656818775.9,286046999.4,N
1656818795.7,286046999.0,N
1656818815.6,286046997.3,N
1656818835.4,286046995.6,Y
1656818855.3,286046999.1,P
1656818875.1,286046998.3,N
1656818895.8,286046997.2,P
1656818915.7,286046995.3,Y
1656818935.5,286047001.1,P
1656818955.4,286046999.8,N
1656818975.2,286047002.2,N
1656818995.0,286047002.5,N
1656818995.9,286047002.5,N
1656819015.8,286046999.9,N
1656819035.6,286046999.7,N
1656819055.4,286047000.1,N
1656819075.3,286047000.0,N
1656819095.1,286047000.1,N
1656819115.9,286047000.8,N
1656819135.7,286047000.9,N
1656819155.5,286047000.7,N
1656819175.4,286047001.0,N
1656819195.2,286047001.1,N
1656819215.0,286046999.3,N
1656819215.9,286046999.3,N
1656819235.8,286046996.9,N
1656819255.6,286046997.2,N
1656819275.5,286046995.8,N
1656819295.3,286046995.9,N
1656819315.1,286046996.2,N
1656819335.9,286046995.3,N
1656819355.7,286046995.8,N
1656819375.5,286046995.6,N
1656819395.4,286046997.5,N
1656819415.2,286046995.0,N
1656819435.1,286046995.9,N
1656819436.0,286046995.9,N
1656819455.8,286046995.3,N
1656819475.6,286046996.2,N
1656819495.5,286046994.0,N
1656819515.3,286046993.3,N
1656819535.1,286046995.9,N
1656819555.9,286046996.0,N
1656819575.7,286046993.7,N
1656819595.6,286046998.0,N
1656819615.4,286046995.8,N
1656819635.2,286046995.1,N
1656819655.1,286046995.1,N
1656819656.0,286046995.1,N
1656819675.8,286046996.1,N
1656819695.7,286046995.2,N
1656819715.5,286046995.6,N
1656819735.3,286046995.5,N
1656819755.2,286046995.5,Y
1656819775.0,286047000.8,P
1656819775.9,286047000.8,N
1656819795.7,286047000.8,N
1656819815.6,286047000.8,N
1656819835.4,286046998.7,N
1656819855.3,286046998.3,N
1656819875.1,286046998.9,N
1656819876.0,286046998.9,N
1656819895.8,286046999.6,N
1656819915.7,286046998.8,N
1656819935.5,286046997.1,N
1656819955.3,286046997.3,N
1656819975.2,286046999.1,N
1656819995.0,286047000.6,N
1656819995.9,286047000.6,N
1656820015.8,286046998.5,N
1656820035.6,286046998.5,N
1656820055.4,286046999.1,N
1656820075.3,286046996.7,N
1656820095.1,286046999.3,N
1656820115.9,286046999.0,N
1656820135.7,286046996.9,N
1656820155.5,286046996.6,N
1656820175.4,286046999.4,N
1656820195.2,286046996.7,N
1656820215.0,286046997.0,N
1656820215.9,286046997.0,N
1656820235.8,286046997.7,N
1656820255.6,286046996.7,N
1656820275.5,286046996.8,N
1656820295.3,286046999.6,N
1656820315.1,286046996.7,N
1656820335.9,286046999.6,N
1656820355.7,286046999.6,N
1656820375.5,286046999.3,N
1656820395.4,286046998.6,N
1656820415.2,286046998.8,N
1656820435.1,286046996.9,N
1656820436.0,286046996.9,N
1656820455.8,286046996.6,N
1656820475.6,286046998.8,N
1656820495.5,286046999.3,N
1656820515.3,286046997.1,N
1656820535.1,286046998.0,N
1656820555.9,286046997.5,N
1656820575.7,286046997.7,N
1656820595.6,286046997.5,N
1656820615.4,286046995.2,Y
1656820635.2,286046996.6,P
1656820655.1,286046999.2,N
1656820656.0,286046999.2,N
1656820675.8,286046999.2,N
1656820695.7,286046999.3,N
1656820715.5,286046999.6,N
1656820735.3,286046996.9,Y
1656820755.2,286047001.2,P
1656820775.0,286046998.4,N
1656820775.9,286046998.4,N
1656820795.8,286046998.6,N
